Location: Fayetteville
(35.0530°N, 78.8790°W)
Time: 21:53:36
(UTC-04:00)

Hubble Space Telescope - Pass Details

Date: 17 June 2019
Orbit: 536 x 540 km, 28.5° (Epoch: 17 August)

Event Time Altitude Azimuth Distance (km) Brightness Sun altitude
Exits shadow 04:42:21 24° 224° (SW) 1,133 1.8 -13.9°
Maximum altitude 04:43:54 32° 184° (S) 932 1.6 -13.7°
Drops below altitude 10° 04:47:35 10° 120° (ESE) 1,777 3.7 -13.1°
Sets 04:50:00 0° 110° (ESE) 2,666 4.7 -12.7°
